COSMOS 252 DEB, 3557

Orbit data source: Space-Track

COSMOS 252 DEB, 3557 is space debris in LEO originally from a launch on Fri, 01 Nov 1968 UTC launched from the Tyuratam Missile And Space Complex (TTMTR). Debris objects in space refer to the collection of defunct objects orbiting the Earth. Examples of debris include non-operational satellites, rocket bodies, and fragments generated from explosions, collisions, or faulty payload assembly.

Loading next visibility...
Identifier
3557, 1968-097K
Orbit
LEO
Country
Flag of CISCIS
Related business
Manufacturer
Unknown
Mission
Spacecraft
Bus & Motor
Unknown
Mass
Unknown
Launch date (UTC)
1968-11-01 (57 years ago)
Launch vehicle
Unknown
Launch site
Tyuratam Missile And Space Complex (TTMTR)
Object type
Payload
Rocket body
Debris
Shape & HBR
Unknown
Radar Cross Section
Small (<0.1 m²)

Expand to show TLE details & history
Last TLE update: 7 hours ago

TLE from 7 hours ago
0 COSMOS 252 DEB
1 03557U 68097K   25258.58669379  .00000233  00000-0  11946-3 0  9997
2 03557  62.3079 256.0429 0833372 188.7808 169.7815 13.23912959717841
Epoch: 2025-09-15T14:04Z
TLE epoch observation values (Epoch: 2025-09-15T14:04:50.343Z)
Latitude
-0.00002°
Longitude
50.04391°
Altitude
1,792.027 km
Speed
6.693 km/s
True Right ascension
17h 04m 10s
True Declination
0° 00' 00"
Sunlit
Object was in daylight at epoch
Visualization orbit readout
Latitude
Unknown
Longitude
Unknown
Altitude
Unknown
Speed
Unknown
Apparent Right ascension
Unknown
Apparent Declination
Unknown
Sunlit
N/A
Visualization observer readout
Local Sidereal Time
14:13:19
Azimuth
Unknown
Elevation
Unknown
Doppler factor
Unknown
Orbital elements
Apogee altitude
1,797.716 km
Perigee altitude
539.839 km
Semi-major axis
7,546.914 km
Eccentricity
0.08334
Inclination
62.3079°
RAAN
256.0429°
Arg. of periapsis
188.7808°
True anomaly
171.31743°
Mean anomaly
169.7815°
Eccentric anomaly
170.5643°
Mean motion
3.31047 °/min
Orbital period
108.75 mins
BSTAR
0.00011946
Loading maneuver chart data...
Computing Atmospheric mass density...

Documentation

Showing up to 5 results
|